This demonstration page uses our WeatherBlox Daily Observations layout. Learn more.

Left ArrowRight Arrow

Hourly Observations for May 12, 2015

Temp ( °F °C ) Dew Point ( °F °C ) Humidity (%) Winds ( mph kmh ) Pressure ( in mb ) Visibility ( mi km ) Precip ( " mm )
12:53 am 00:53 Clear 41 5 32 0 70 70 W 8 13 30.22 1024 10 16 0.00 0.00
1:53 am 01:53 Clear 40 4.4 32 0 73 73 W 8 13 30.22 1023 10 16 0.00 0.00
2:53 am 02:53 Clear 39 3.9 32 0 76 76 WSW 5 7 30.23 1024 10 16 0.00 0.00
3:53 am 03:53 Clear 37 2.8 31 -0.6 79 79 WSW 5 7 30.24 1024 10 16 0.00 0.00
4:53 am 04:53 Clear 38 3.3 30 -1.1 73 73 WSW 7 11 30.26 1025 10 16 0.00 0.00
5:53 am 05:53 Clear 38 3.3 29 -1.7 70 70 WSW 5 7 30.25 1025 10 16 0.00 0.00
6:53 am 06:53 Sunny 38 3.3 30 -1.1 73 73 Calm 30.25 1024 10 16 0.00 0.00
7:53 am 07:53 Sunny 42 5.6 32 0 68 68 SW 6 9 30.28 1026 10 16 0.00 0.00
8:53 am 08:53 Mostly Cloudy 50 10 36 2.2 59 59 SW 6 9 30.28 1026 10 16 0.00 0.00
9:53 am 09:53 Sunny 56 13.3 35 1.7 46 46 SSW 9 15 30.29 1026 10 16 0.00 0.00
10:53 am 10:53 Sunny 59 15 32 0 36 36 S 9 15 30.29 1026 10 16 0.00 0.00
11:53 am 11:53 Sunny 62 16.7 33 0.6 34 34 S 13 20 30.29 1026 10 16 0.00 0.00
12:53 pm 12:53 Sunny 64 17.8 31 -0.6 29 29 S 14 22 30.27 1025 10 16 0.00 0.00
1:53 pm 13:53 Sunny 67 19.4 32 0 27 27 S 16 26 30.24 1024 10 16 0.00 0.00
2:53 pm 14:53 Sunny 68 20 33 0.6 27 27 S 17 28 30.21 1023 10 16 0.00 0.00
3:53 pm 15:53 Sunny 69 20.6 35 1.7 29 29 S 15 24 30.17 1022 10 16 0.00 0.00
4:53 pm 16:53 Sunny 69 20.6 35 1.7 29 29 S 15 24 30.15 1021 10 16 0.00 0.00
5:53 pm 17:53 Sunny 69 20.6 36 2.2 30 30 S 17 28 30.14 1021 10 16 0.00 0.00
6:53 pm 18:53 Sunny 67 19.4 37 2.8 33 33 S 18 30 30.12 1020 10 16 0.00 0.00
7:53 pm 19:53 Sunny 65 18.3 36 2.2 34 34 S 15 24 30.11 1020 10 16 0.00 0.00
8:53 pm 20:53 Clear 62 16.7 39 3.9 43 43 SSE 13 20 30.10 1019 10 16 0.00 0.00
9:53 pm 21:53 Clear 59 15 39 3.9 48 48 SSE 13 20 30.12 1020 10 16 0.00 0.00
10:53 pm 22:53 Clear 57 13.9 39 3.9 51 51 SSE 15 24 30.14 1021 10 16 0.00 0.00
11:53 pm 23:53 Clear 55 12.8 40 4.4 57 57 SSE 10 17 30.16 1021 10 16 0.00 0.00

Powered by AerisWeather